| time (UTC) | temp C | wind direction | speed KPH | gust KPH | rain 1hr cm | rain 24hr cm | rain mn cm | humidity % | barometer mb |
| 20260508045955 | 5 | 70 | 0.0 | 3.2 | 0.00 | 0.10 | 0.00 | 94 | 1013.0 |
| 20260508045455 | 6 | 70 | 0.0 | 3.2 | 0.00 | 0.10 | 0.00 | 94 | 1013.1 |
| 20260508044953 | 6 | 97 | 0.0 | 3.2 | 0.00 | 0.13 | 0.00 | 94 | 1013.0 |
| 20260508044453 | 7 | 97 | 1.6 | 3.2 | 0.00 | 0.13 | 0.00 | 94 | 1012.9 |
| 20260508043957 | 7 | 97 | 1.6 | 3.2 | 0.00 | 0.13 | 0.00 | 94 | 1012.9 |
| 20260508043713 | 6 | 78 | 0.0 | 3.2 | 0.00 | 0.13 | 0.00 | 94 | 1012.9 |
| 20260508042943 | 6 | 20 | 0.0 | 1.6 | 0.00 | 0.13 | 0.00 | 94 | 1012.8 |
| 20260508042441 | 6 | 17 | 0.0 | 0.0 | 0.00 | 0.15 | 0.00 | 94 | 1012.7 |
| 20260508041941 | 7 | 17 | 0.0 | 0.0 | 0.00 | 0.20 | 0.00 | 94 | 1012.7 |
| 20260508041441 | 7 | 17 | 0.0 | 3.2 | 0.00 | 0.25 | 0.00 | 94 | 1012.7 |
| 20260508041419 | 7 | 17 | 0.0 | 3.2 | 0.00 | 0.28 | 0.00 | 94 | 1012.6 |
| 20260508040439 | 6 | 17 | 0.0 | 1.6 | 0.00 | 0.30 | 0.00 | 94 | 1012.6 |
| 20260508035943 | 6 | 9 | 0.0 | 0.0 | 0.00 | 0.38 | 0.38 | 93 | 1012.6 |
| 20260508035438 | 7 | 9 | 0.0 | 3.2 | 0.00 | 0.41 | 0.38 | 94 | 1012.6 |
| 20260508034938 | 7 | 9 | 0.0 | 3.2 | 0.00 | 0.41 | 0.38 | 93 | 1012.5 |
| 20260508034658 | 7 | 9 | 1.6 | 3.2 | 0.00 | 0.41 | 0.38 | 93 | 1012.5 |
| 20260508033936 | 7 | 46 | 0.0 | 3.2 | 0.00 | 0.41 | 0.38 | 93 | 1012.3 |
| 20260508033436 | 7 | 263 | 0.0 | 3.2 | 0.00 | 0.41 | 0.38 | 93 | 1012.3 |
| 20260508032935 | 7 | 263 | 0.0 | 3.2 | 0.00 | 0.41 | 0.38 | 93 | 1012.3 |
| 20260508032434 | 7 | 263 | 0.0 | 3.2 | 0.00 | 0.41 | 0.38 | 93 | 1012.3 |
| 20260508031934 | 7 | 263 | 0.0 | 0.0 | 0.00 | 0.41 | 0.38 | 93 | 1012.3 |
| 20260508031439 | 7 | 263 | 0.0 | 1.6 | 0.00 | 0.41 | 0.38 | 92 | 1012.2 |
| 20260508031157 | 7 | 263 | 0.0 | 1.6 | 0.00 | 0.41 | 0.38 | 92 | 1012.2 |
| 20260508030432 | 8 | 263 | 0.0 | 3.2 | 0.00 | 0.41 | 0.38 | 91 | 1012.2 |
| 20260508025932 | 8 | 263 | 0.0 | 3.2 | 0.00 | 0.41 | 0.38 | 91 | 1012.1 |
| 20260508025426 | 8 | 263 | 0.0 | 3.2 | 0.00 | 0.41 | 0.38 | 90 | 1012.2 |
| 20260508024925 | 9 | 263 | 0.0 | 3.2 | 0.00 | 0.41 | 0.38 | 90 | 1012.1 |
| 20260508024426 | 10 | 263 | 0.0 | 3.2 | 0.00 | 0.41 | 0.38 | 92 | 1012.2 |
| 20260508023920 | 8 | 263 | 0.0 | 3.2 | 0.00 | 0.41 | 0.38 | 92 | 1012.1 |
| 20260508023420 | 8 | 223 | 0.0 | 3.2 | 0.00 | 0.41 | 0.38 | 89 | 1012.2 |
| 20260508022920 | 9 | 163 | 0.0 | 3.2 | 0.00 | 0.41 | 0.38 | 91 | 1012.0 |
| 20260508022418 | 9 | 163 | 0.0 | 3.2 | 0.00 | 0.41 | 0.38 | 91 | 1012.0 |
| 20260508021917 | 9 | 163 | 0.0 | 0.0 | 0.00 | 0.41 | 0.38 | 91 | 1012.1 |
| 20260508021418 | 9 | 163 | 0.0 | 0.0 | 0.00 | 0.41 | 0.38 | 90 | 1012.0 |
| 20260508020916 | 10 | 163 | 0.0 | 0.0 | 0.00 | 0.41 | 0.38 | 89 | 1012.0 |
| 20260508020416 | 10 | 163 | 0.0 | 0.0 | 0.00 | 0.41 | 0.38 | 90 | 1012.0 |
| 20260508015922 | 10 | 163 | 0.0 | 3.2 | 0.00 | 0.41 | 0.38 | 91 | 1012.0 |
| 20260508015413 | 9 | 163 | 0.0 | 3.2 | 0.00 | 0.41 | 0.38 | 91 | 1011.9 |
| 20260508014914 | 9 | 163 | 0.0 | 3.2 | 0.00 | 0.41 | 0.38 | 89 | 1011.9 |
| 20260508014414 | 10 | 163 | 0.0 | 3.2 | 0.00 | 0.41 | 0.38 | 89 | 1011.8 |
| 20260508013911 | 10 | 163 | 0.0 | 3.2 | 0.00 | 0.41 | 0.38 | 91 | 1011.7 |
| 20260508013412 | 10 | 163 | 0.0 | 1.6 | 0.00 | 0.41 | 0.38 | 90 | 1011.6 |
| 20260508012911 | 10 | 163 | 0.0 | 1.6 | 0.00 | 0.41 | 0.38 | 89 | 1011.6 |
| 20260508012409 | 10 | 163 | 0.0 | 3.2 | 0.00 | 0.41 | 0.38 | 86 | 1011.6 |
| 20260508011910 | 11 | 161 | 0.0 | 3.2 | 0.00 | 0.41 | 0.38 | 83 | 1011.5 |
| 20260508011415 | 11 | 161 | 0.0 | 3.2 | 0.00 | 0.41 | 0.38 | 83 | 1011.5 |
| 20260508010910 | 11 | 161 | 0.0 | 4.8 | 0.00 | 0.41 | 0.38 | 83 | 1011.5 |
| 20260508010406 | 11 | 144 | 1.6 | 4.8 | 0.00 | 0.41 | 0.38 | 83 | 1011.5 |
| 20260508010135 | 11 | 0 | 1.6 | 4.8 | 0.00 | 0.41 | 0.38 | 83 | 1011.5 |
| 20260508005406 | 11 | 211 | 1.6 | 4.8 | 0.00 | 0.41 | 0.38 | 83 | 1011.4 |
| 20260508004905 | 11 | 189 | 1.6 | 4.8 | 0.00 | 0.41 | 0.38 | 83 | 1011.3 |
| 20260508004405 | 11 | 144 | 1.6 | 6.4 | 0.00 | 0.41 | 0.38 | 81 | 1011.2 |
| 20260508003908 | 11 | 114 | 1.6 | 6.4 | 0.00 | 0.41 | 0.38 | 81 | 1011.2 |
| 20260508003400 | 11 | 182 | 1.6 | 4.8 | 0.00 | 0.41 | 0.38 | 82 | 1011.1 |
| 20260508002858 | 11 | 194 | 1.6 | 4.8 | 0.00 | 0.41 | 0.38 | 81 | 1011.1 |
| 20260508002358 | 12 | 173 | 1.6 | 4.8 | 0.00 | 0.41 | 0.38 | 80 | 1011.0 |
| 20260508001858 | 12 | 151 | 1.6 | 3.2 | 0.00 | 0.41 | 0.38 | 79 | 1011.0 |
| 20260508001356 | 12 | 162 | 1.6 | 6.4 | 0.00 | 0.41 | 0.38 | 79 | 1011.0 |
| 20260508000850 | 12 | 154 | 1.6 | 6.4 | 0.00 | 0.41 | 0.38 | 79 | 1010.9 |
| 20260508000350 | 12 | 162 | 1.6 | 4.8 | 0.00 | 0.41 | 0.38 | 79 | 1010.6 |
| 20260507235850 | 12 | 201 | 1.6 | 8.0 | 0.00 | 0.41 | 0.38 | 78 | 1010.6 |
| 20260507235350 | 12 | 200 | 1.6 | 8.0 | 0.00 | 0.41 | 0.38 | 77 | 1010.6 |
| 20260507234850 | 12 | 180 | 1.6 | 8.0 | 0.00 | 0.41 | 0.38 | 76 | 1010.5 |
| 20260507234349 | 12 | 192 | 3.2 | 8.0 | 0.00 | 0.41 | 0.38 | 76 | 1010.4 |
| 20260507234113 | 13 | 173 | 3.2 | 9.7 | 0.00 | 0.41 | 0.38 | 75 | 1010.4 |
| 20260507233611 | 13 | 189 | 4.8 | 9.7 | 0.00 | 0.41 | 0.38 | 74 | 1010.4 |
| 20260507232850 | 13 | 205 | 4.8 | 8.0 | 0.00 | 0.41 | 0.38 | 74 | 1010.4 |
| 20260507232349 | 13 | 244 | 3.2 | 9.7 | 0.00 | 0.41 | 0.38 | 73 | 1010.3 |
| 20260507231849 | 13 | 230 | 3.2 | 9.7 | 0.00 | 0.41 | 0.38 | 73 | 1010.2 |
| 20260507231349 | 13 | 247 | 4.8 | 9.7 | 0.00 | 0.41 | 0.38 | 72 | 1010.2 |
| 20260507230849 | 13 | 199 | 4.8 | 9.7 | 0.00 | 0.41 | 0.38 | 71 | 1010.1 |
| 20260507230349 | 13 | 195 | 4.8 | 8.0 | 0.00 | 0.41 | 0.38 | 70 | 1010.0 |
| 20260507230110 | 13 | 246 | 4.8 | 8.0 | 0.00 | 0.41 | 0.38 | 68 | 1009.9 |
| 20260507225345 | 13 | 199 | 4.8 | 11.3 | 0.00 | 0.41 | 0.38 | 69 | 1009.9 |
| 20260507224845 | 13 | 238 | 4.8 | 11.3 | 0.00 | 0.41 | 0.38 | 68 | 1009.9 |
| 20260507224343 | 13 | 171 | 4.8 | 11.3 | 0.00 | 0.41 | 0.38 | 67 | 1009.9 |
| 20260507223843 | 14 | 151 | 6.4 | 12.9 | 0.00 | 0.41 | 0.38 | 66 | 1009.8 |
| 20260507223337 | 14 | 200 | 6.4 | 12.9 | 0.00 | 0.41 | 0.38 | 68 | 1009.8 |
| 20260507222840 | 14 | 259 | 6.4 | 14.5 | 0.00 | 0.41 | 0.38 | 66 | 1009.8 |
| 20260507222336 | 14 | 208 | 4.8 | 14.5 | 0.00 | 0.41 | 0.38 | 65 | 1009.7 |
| 20260507222057 | 14 | 240 | 4.8 | 11.3 | 0.00 | 0.41 | 0.38 | 67 | 1009.7 |
| 20260507221334 | 14 | 157 | 6.4 | 14.5 | 0.00 | 0.41 | 0.38 | 65 | 1009.7 |
| 20260507220831 | 14 | 206 | 8.0 | 16.1 | 0.00 | 0.41 | 0.38 | 65 | 1009.7 |
| 20260507220325 | 14 | 157 | 6.4 | 16.1 | 0.00 | 0.41 | 0.38 | 67 | 1009.7 |
| 20260507215829 | 14 | 185 | 6.4 | 14.5 | 0.00 | 0.41 | 0.38 | 64 | 1009.8 |
| 20260507215543 | 14 | 150 | 6.4 | 14.5 | 0.00 | 0.41 | 0.38 | 66 | 1009.7 |
| 20260507214823 | 14 | 273 | 8.0 | 14.5 | 0.00 | 0.41 | 0.38 | 64 | 1009.7 |
| 20260507214547 | 14 | 190 | 8.0 | 14.5 | 0.00 | 0.41 | 0.38 | 65 | 1009.6 |
| 20260507213821 | 14 | 217 | 6.4 | 14.5 | 0.00 | 0.41 | 0.38 | 67 | 1009.7 |
| 20260507213321 | 14 | 115 | 6.4 | 16.1 | 0.00 | 0.41 | 0.38 | 67 | 1009.7 |
| 20260507212821 | 14 | 131 | 6.4 | 16.1 | 0.00 | 0.41 | 0.38 | 65 | 1009.6 |
| 20260507212318 | 14 | 195 | 8.0 | 16.1 | 0.00 | 0.41 | 0.38 | 69 | 1009.6 |
| 20260507211813 | 14 | 211 | 9.7 | 16.1 | 0.00 | 0.41 | 0.38 | 67 | 1009.7 |
| 20260507211313 | 14 | 169 | 11.3 | 19.3 | 0.00 | 0.41 | 0.38 | 65 | 1009.8 |
| 20260507210814 | 14 | 126 | 9.7 | 19.3 | 0.00 | 0.41 | 0.38 | 67 | 1009.7 |
| 20260507210313 | 15 | 136 | 6.4 | 17.7 | 0.00 | 0.41 | 0.38 | 65 | 1009.7 |
| 20260507205814 | 15 | 221 | 4.8 | 14.5 | 0.00 | 0.41 | 0.38 | 66 | 1009.5 |
| 20260507205546 | 15 | 170 | 6.4 | 16.1 | 0.00 | 0.41 | 0.38 | 66 | 1009.6 |
| 20260507204811 | 15 | 149 | 6.4 | 16.1 | 0.00 | 0.41 | 0.38 | 65 | 1009.5 |
| 20260507204312 | 15 | 191 | 4.8 | 17.7 | 0.00 | 0.41 | 0.38 | 68 | 1009.7 |
| 20260507203811 | 15 | 219 | 6.4 | 17.7 | 0.00 | 0.41 | 0.38 | 68 | 1009.7 |
| 20260507203529 | 14 | 113 | 8.0 | 17.7 | 0.00 | 0.41 | 0.38 | 68 | 1009.7 |
| 20260507202811 | 14 | 133 | 6.4 | 17.7 | 0.00 | 0.41 | 0.38 | 63 | 1009.8 |
| 20260507202800 | 14 | 126 | 6.4 | 16.1 | 0.00 | 0.41 | 0.38 | 64 | 1009.8 |
| 20260507201809 | 14 | 98 | 8.0 | 16.1 | 0.00 | 0.41 | 0.38 | 64 | 1009.9 |
| 20260507201309 | 14 | 129 | 8.0 | 16.1 | 0.00 | 0.41 | 0.38 | 67 | 1009.9 |
| 20260507200808 | 13 | 159 | 6.4 | 12.9 | 0.00 | 0.41 | 0.38 | 64 | 1009.9 |
| 20260507200307 | 13 | 138 | 6.4 | 12.9 | 0.00 | 0.41 | 0.38 | 63 | 1009.9 |
| 20260507195807 | 14 | 120 | 4.8 | 11.3 | 0.00 | 0.41 | 0.38 | 64 | 1010.0 |
| 20260507195306 | 14 | 133 | 4.8 | 11.3 | 0.00 | 0.41 | 0.38 | 62 | 1010.0 |
| 20260507194805 | 13 | 130 | 4.8 | 11.3 | 0.00 | 0.41 | 0.38 | 60 | 1010.0 |
| 20260507194306 | 14 | 158 | 3.2 | 12.9 | 0.03 | 0.41 | 0.38 | 62 | 1009.9 |
| 20260507193809 | 14 | 194 | 4.8 | 12.9 | 0.03 | 0.41 | 0.38 | 63 | 1010.0 |
| 20260507193303 | 14 | 205 | 4.8 | 12.9 | 0.03 | 0.41 | 0.38 | 62 | 1010.2 |
| 20260507192803 | 14 | 209 | 6.4 | 12.9 | 0.03 | 0.41 | 0.38 | 65 | 1010.5 |
| 20260507192306 | 13 | 186 | 6.4 | 12.9 | 0.03 | 0.41 | 0.38 | 64 | 1010.6 |
| 20260507191801 | 13 | 178 | 6.4 | 12.9 | 0.03 | 0.41 | 0.38 | 64 | 1010.6 |
| 20260507191302 | 13 | 171 | 6.4 | 12.9 | 0.03 | 0.41 | 0.38 | 64 | 1010.4 |
| 20260507190800 | 13 | 113 | 3.2 | 11.3 | 0.03 | 0.41 | 0.38 | 65 | 1010.3 |
| 20260507190259 | 13 | 92 | 3.2 | 11.3 | 0.03 | 0.41 | 0.38 | 64 | 1010.3 |
| 20260507185800 | 13 | 107 | 4.8 | 11.3 | 0.03 | 0.41 | 0.38 | 68 | 1010.3 |
| 20260507185305 | 13 | 74 | 3.2 | 11.3 | 0.03 | 0.41 | 0.38 | 67 | 1010.5 |
| 20260507184757 | 13 | 119 | 3.2 | 9.7 | 0.03 | 0.41 | 0.38 | 66 | 1010.6 |
| 20260507184257 | 13 | 100 | 4.8 | 11.3 | 0.00 | 0.38 | 0.36 | 63 | 1010.4 |
| 20260507183757 | 13 | 81 | 4.8 | 11.3 | 0.00 | 0.38 | 0.36 | 63 | 1010.9 |
| 20260507183254 | 13 | 108 | 4.8 | 11.3 | 0.00 | 0.38 | 0.36 | 65 | 1011.1 |
| 20260507182755 | 13 | 179 | 4.8 | 11.3 | 0.00 | 0.38 | 0.36 | 61 | 1011.0 |
| 20260507182255 | 13 | 121 | 3.2 | 9.7 | 0.00 | 0.38 | 0.36 | 63 | 1011.1 |
| 20260507182012 | 13 | 116 | 3.2 | 9.7 | 0.00 | 0.38 | 0.36 | 67 | 1011.2 |
| 20260507181253 | 13 | 91 | 3.2 | 9.7 | 0.00 | 0.38 | 0.36 | 70 | 1010.8 |
| 20260507181023 | 13 | 144 | 3.2 | 6.4 | 0.00 | 0.38 | 0.36 | 65 | 1011.3 |
| 20260507180251 | 13 | 74 | 4.8 | 12.9 | 0.00 | 0.38 | 0.36 | 65 | 1011.3 |
| 20260507180022 | 13 | 132 | 3.2 | 12.9 | 0.00 | 0.38 | 0.36 | 62 | 1011.5 |
| 20260507175250 | 13 | 114 | 3.2 | 12.9 | 0.00 | 0.38 | 0.36 | 65 | 1011.2 |
| 20260507174748 | 13 | 116 | 3.2 | 12.9 | 0.00 | 0.38 | 0.36 | 62 | 1011.2 |
| 20260507174514 | 13 | 91 | 1.6 | 4.8 | 0.00 | 0.38 | 0.36 | 67 | 1011.3 |
| 20260507173748 | 13 | 78 | 1.6 | 4.8 | 0.00 | 0.38 | 0.36 | 66 | 1011.5 |
| 20260507173509 | 13 | 355 | 1.6 | 4.8 | 0.00 | 0.38 | 0.36 | 64 | 1011.5 |
| 20260507173229 | 13 | 28 | 1.6 | 4.8 | 0.00 | 0.38 | 0.36 | 62 | 1011.6 |
| 20260507172251 | 14 | 67 | 1.6 | 8.0 | 0.00 | 0.38 | 0.36 | 65 | 1011.6 |
| 20260507171745 | 13 | 5 | 1.6 | 8.0 | 0.00 | 0.38 | 0.36 | 67 | 1011.4 |
| 20260507171517 | 13 | 71 | 3.2 | 8.0 | 0.00 | 0.38 | 0.36 | 63 | 1011.8 |
| 20260507170744 | 13 | 45 | 1.6 | 8.0 | 0.00 | 0.38 | 0.36 | 61 | 1011.8 |
| 20260507170241 | 13 | 105 | 1.6 | 6.4 | 0.00 | 0.38 | 0.36 | 63 | 1011.8 |
| 20260507165741 | 13 | 21 | 1.6 | 11.3 | 0.00 | 0.38 | 0.36 | 68 | 1011.9 |
| 20260507165241 | 13 | 61 | 1.6 | 11.3 | 0.00 | 0.38 | 0.36 | 64 | 1011.8 |
| 20260507164959 | 13 | 28 | 1.6 | 11.3 | 0.00 | 0.38 | 0.36 | 70 | 1012.0 |
| 20260507164239 | 12 | 355 | 1.6 | 11.3 | 0.00 | 0.38 | 0.36 | 69 | 1012.1 |
| 20260507164231 | 12 | 112 | 1.6 | 4.8 | 0.00 | 0.38 | 0.36 | 74 | 1012.2 |
| 20260507163459 | 12 | 0 | 0.0 | 3.2 | 0.00 | 0.38 | 0.36 | 77 | 1012.4 |
| 20260507162736 | 12 | 139 | 0.0 | 3.2 | 0.00 | 0.38 | 0.36 | 78 | 1012.6 |
| 20260507162236 | 12 | 139 | 1.6 | 3.2 | 0.00 | 0.38 | 0.36 | 77 | 1012.7 |
| 20260507161733 | 11 | 125 | 1.6 | 3.2 | 0.00 | 0.38 | 0.36 | 79 | 1012.7 |
| 20260507161233 | 11 | 169 | 1.6 | 3.2 | 0.00 | 0.38 | 0.36 | 79 | 1012.9 |
| 20260507160739 | 11 | 111 | 1.6 | 3.2 | 0.00 | 0.38 | 0.36 | 77 | 1012.8 |
| 20260507160231 | 11 | 107 | 1.6 | 3.2 | 0.00 | 0.38 | 0.36 | 79 | 1012.7 |
| 20260507155731 | 12 | 126 | 0.0 | 3.2 | 0.00 | 0.38 | 0.36 | 81 | 1012.6 |
| 20260507155456 | 11 | 85 | 0.0 | 3.2 | 0.00 | 0.38 | 0.36 | 79 | 1012.5 |
| 20260507154731 | 11 | 75 | 0.0 | 3.2 | 0.00 | 0.38 | 0.36 | 78 | 1012.5 |
| 20260507154451 | 12 | 53 | 0.0 | 3.2 | 0.00 | 0.38 | 0.36 | 80 | 1012.5 |
| 20260507153731 | 11 | 59 | 0.0 | 3.2 | 0.00 | 0.38 | 0.36 | 79 | 1012.7 |
| 20260507153225 | 11 | 57 | 0.0 | 3.2 | 0.00 | 0.38 | 0.36 | 77 | 1012.8 |
| 20260507152725 | 12 | 53 | 0.0 | 3.2 | 0.00 | 0.38 | 0.36 | 78 | 1012.6 |
| 20260507152224 | 12 | 59 | 0.0 | 3.2 | 0.00 | 0.38 | 0.36 | 77 | 1012.6 |
| 20260507151730 | 12 | 59 | 0.0 | 3.2 | 0.00 | 0.38 | 0.36 | 78 | 1012.6 |
| 20260507151220 | 11 | 55 | 0.0 | 3.2 | 0.00 | 0.38 | 0.36 | 77 | 1012.8 |
| 20260507150949 | 11 | 44 | 0.0 | 3.2 | 0.00 | 0.38 | 0.36 | 72 | 1012.8 |
| 20260507150220 | 12 | 17 | 0.0 | 3.2 | 0.00 | 0.38 | 0.36 | 72 | 1012.9 |
| 20260507145721 | 12 | 56 | 0.0 | 3.2 | 0.00 | 0.38 | 0.36 | 75 | 1012.6 |
| 20260507145221 | 12 | 13 | 0.0 | 6.4 | 0.00 | 0.38 | 0.36 | 73 | 1012.8 |
| 20260507144719 | 12 | 13 | 1.6 | 4.8 | 0.00 | 0.38 | 0.36 | 72 | 1012.8 |
| 20260507144438 | 12 | 23 | 1.6 | 6.4 | 0.00 | 0.38 | 0.36 | 71 | 1012.9 |
| 20260507143719 | 12 | 19 | 1.6 | 4.8 | 0.00 | 0.38 | 0.36 | 73 | 1012.9 |
| 20260507143219 | 12 | 60 | 1.6 | 4.8 | 0.00 | 0.38 | 0.36 | 74 | 1013.0 |
| 20260507142938 | 12 | 30 | 1.6 | 4.8 | 0.00 | 0.41 | 0.36 | 73 | 1013.3 |
| 20260507142438 | 12 | 51 | 0.0 | 4.8 | 0.00 | 0.41 | 0.36 | 74 | 1013.3 |
| 20260507141718 | 12 | 11 | 0.0 | 4.8 | 0.00 | 0.41 | 0.36 | 74 | 1013.3 |
| 20260507141440 | 12 | 19 | 0.0 | 4.8 | 0.00 | 0.41 | 0.36 | 79 | 1013.5 |
| 20260507140719 | 12 | 19 | 0.0 | 4.8 | 0.00 | 0.43 | 0.36 | 75 | 1013.4 |
| 20260507140218 | 12 | 15 | 0.0 | 4.8 | 0.00 | 0.43 | 0.36 | 77 | 1013.3 |
| 20260507135719 | 12 | 22 | 1.6 | 4.8 | 0.00 | 0.48 | 0.36 | 77 | 1013.3 |
| 20260507135220 | 12 | 36 | 1.6 | 4.8 | 0.00 | 0.51 | 0.36 | 76 | 1013.3 |
| 20260507134720 | 12 | 29 | 0.0 | 3.2 | 0.00 | 0.53 | 0.36 | 76 | 1013.3 |
| 20260507134219 | 12 | 5 | 0.0 | 9.7 | 0.00 | 0.53 | 0.36 | 78 | 1013.4 |
| 20260507133719 | 12 | 29 | 1.6 | 9.7 | 0.00 | 0.53 | 0.36 | 77 | 1013.4 |
| 20260507133218 | 12 | 5 | 1.6 | 9.7 | 0.00 | 0.53 | 0.36 | 77 | 1013.3 |
| 20260507132717 | 12 | 325 | 1.6 | 9.7 | 0.00 | 0.53 | 0.36 | 78 | 1013.2 |
| 20260507132215 | 12 | 0 | 1.6 | 8.0 | 0.00 | 0.53 | 0.36 | 77 | 1013.2 |
| 20260507131715 | 12 | 350 | 1.6 | 8.0 | 0.00 | 0.53 | 0.36 | 80 | 1013.3 |
| 20260507131214 | 12 | 355 | 1.6 | 9.7 | 0.00 | 0.56 | 0.36 | 81 | 1013.1 |
| 20260507130713 | 12 | 40 | 1.6 | 9.7 | 0.00 | 0.56 | 0.36 | 82 | 1013.2 |
| 20260507130211 | 12 | 351 | 1.6 | 9.7 | 0.00 | 0.58 | 0.36 | 82 | 1013.0 |
| 20260507125706 | 12 | 35 | 1.6 | 9.7 | 0.00 | 0.61 | 0.36 | 81 | 1013.0 |
| 20260507125431 | 12 | 350 | 1.6 | 4.8 | 0.00 | 0.64 | 0.36 | 84 | 1013.0 |
| 20260507124700 | 12 | 16 | 1.6 | 6.4 | 0.00 | 0.64 | 0.36 | 83 | 1013.0 |
| 20260507124159 | 12 | 343 | 1.6 | 6.4 | 0.00 | 0.66 | 0.36 | 82 | 1013.2 |
| 20260507123700 | 12 | 9 | 1.6 | 8.0 | 0.00 | 0.66 | 0.36 | 82 | 1013.2 |
| 20260507123415 | 12 | 13 | 1.6 | 8.0 | 0.00 | 0.69 | 0.36 | 82 | 1013.1 |
| 20260507122654 | 12 | 355 | 1.6 | 8.0 | 0.00 | 0.69 | 0.36 | 82 | 1013.0 |
| 20260507122154 | 12 | 38 | 1.6 | 8.0 | 0.00 | 0.71 | 0.36 | 83 | 1012.8 |
| 20260507121653 | 12 | 69 | 1.6 | 6.4 | 0.00 | 0.71 | 0.36 | 82 | 1012.9 |
| 20260507121152 | 12 | 26 | 1.6 | 6.4 | 0.00 | 0.71 | 0.36 | 82 | 1012.8 |
| 20260507120651 | 12 | 37 | 1.6 | 6.4 | 0.00 | 0.71 | 0.36 | 82 | 1012.7 |
| 20260507120148 | 12 | 346 | 1.6 | 6.4 | 0.00 | 0.71 | 0.36 | 82 | 1012.6 |
| 20260507115649 | 12 | 16 | 1.6 | 6.4 | 0.00 | 0.71 | 0.36 | 83 | 1012.4 |
| 20260507115405 | 12 | 11 | 1.6 | 6.4 | 0.00 | 0.71 | 0.36 | 84 | 1012.2 |
| 20260507114651 | 12 | 0 | 1.6 | 6.4 | 0.00 | 0.71 | 0.36 | 85 | 1012.5 |
| 20260507114142 | 12 | 355 | 1.6 | 4.8 | 0.00 | 0.71 | 0.36 | 85 | 1012.6 |
| 20260507113642 | 12 | 325 | 0.0 | 6.4 | 0.00 | 0.71 | 0.36 | 86 | 1012.6 |
| 20260507113146 | 12 | 321 | 0.0 | 6.4 | 0.00 | 0.71 | 0.36 | 86 | 1012.4 |
| 20260507112641 | 12 | 355 | 1.6 | 6.4 | 0.00 | 0.71 | 0.36 | 86 | 1012.4 |
| 20260507112407 | 11 | 342 | 1.6 | 6.4 | 0.00 | 0.71 | 0.36 | 85 | 1012.5 |
| 20260507111640 | 11 | 42 | 0.0 | 4.8 | 0.00 | 0.71 | 0.36 | 86 | 1012.2 |
| 20260507111138 | 11 | 5 | 0.0 | 3.2 | 0.00 | 0.71 | 0.36 | 86 | 1012.0 |
| 20260507110857 | 11 | 355 | 0.0 | 3.2 | 0.00 | 0.71 | 0.36 | 86 | 1011.9 |
| 20260507110137 | 11 | 36 | 0.0 | 4.8 | 0.00 | 0.71 | 0.36 | 87 | 1012.0 |
| 20260507105636 | 11 | 319 | 0.0 | 4.8 | 0.00 | 0.71 | 0.36 | 87 | 1012.1 |
| 20260507105137 | 11 | 5 | 1.6 | 4.8 | 0.00 | 0.71 | 0.36 | 87 | 1012.4 |
| 20260507104640 | 11 | 346 | 1.6 | 4.8 | 0.00 | 0.71 | 0.36 | 87 | 1012.6 |
| 20260507104351 | 11 | 15 | 0.0 | 3.2 | 0.00 | 0.71 | 0.36 | 87 | 1012.4 |
| 20260507103634 | 11 | 305 | 0.0 | 3.2 | 0.00 | 0.71 | 0.36 | 87 | 1012.3 |
| 20260507103133 | 11 | 310 | 0.0 | 4.8 | 0.00 | 0.71 | 0.36 | 88 | 1012.2 |
| 20260507102628 | 11 | 43 | 0.0 | 4.8 | 0.00 | 0.71 | 0.36 | 88 | 1011.9 |
| 20260507102346 | 11 | 355 | 0.0 | 3.2 | 0.00 | 0.71 | 0.36 | 88 | 1011.9 |
| 20260507101628 | 11 | 94 | 0.0 | 3.2 | 0.00 | 0.71 | 0.36 | 88 | 1012.2 |
| 20260507101126 | 11 | 96 | 0.0 | 3.2 | 0.00 | 0.71 | 0.36 | 88 | 1012.0 |
| 20260507100626 | 11 | 36 | 0.0 | 3.2 | 0.00 | 0.71 | 0.36 | 88 | 1012.0 |
| 20260507100126 | 11 | 20 | 0.0 | 3.2 | 0.00 | 0.71 | 0.36 | 88 | 1011.8 |
| 20260507095624 | 11 | 70 | 0.0 | 3.2 | 0.00 | 0.71 | 0.36 | 88 | 1011.8 |
| 20260507095124 | 11 | 51 | 0.0 | 3.2 | 0.00 | 0.71 | 0.36 | 89 | 1011.8 |
| 20260507095113 | 12 | 55 | 0.0 | 3.2 | 0.00 | 0.71 | 0.36 | 89 | 1011.9 |
| 20260507094122 | 12 | 84 | 0.0 | 3.2 | 0.00 | 0.71 | 0.36 | 89 | 1011.9 |
| 20260507093622 | 12 | 13 | 0.0 | 1.6 | 0.00 | 0.71 | 0.36 | 90 | 1012.2 |
| 20260507093121 | 12 | 22 | 0.0 | 4.8 | 0.00 | 0.71 | 0.36 | 89 | 1012.0 |
| 20260507092620 | 12 | 22 | 0.0 | 4.8 | 0.00 | 0.71 | 0.36 | 89 | 1012.0 |
| 20260507092120 | 12 | 355 | 0.0 | 4.8 | 0.00 | 0.71 | 0.36 | 89 | 1012.0 |
| 20260507091619 | 12 | 5 | 1.6 | 4.8 | 0.00 | 0.71 | 0.36 | 89 | 1011.9 |
| 20260507091118 | 12 | 37 | 0.0 | 4.8 | 0.00 | 0.71 | 0.36 | 90 | 1011.7 |
| 20260507090618 | 12 | 80 | 0.0 | 4.8 | 0.00 | 0.71 | 0.36 | 90 | 1011.7 |
| 20260507090122 | 12 | 83 | 0.0 | 4.8 | 0.00 | 0.71 | 0.36 | 90 | 1011.7 |
| 20260507085616 | 12 | 73 | 0.0 | 4.8 | 0.00 | 0.71 | 0.36 | 90 | 1011.5 |
| 20260507085116 | 12 | 40 | 0.0 | 4.8 | 0.00 | 0.71 | 0.36 | 90 | 1011.6 |
| 20260507084615 | 12 | 9 | 0.0 | 3.2 | 0.00 | 0.71 | 0.36 | 90 | 1011.5 |
| 20260507084110 | 12 | 16 | 0.0 | 3.2 | 0.00 | 0.71 | 0.36 | 90 | 1011.5 |
| 20260507083831 | 12 | 16 | 0.0 | 4.8 | 0.00 | 0.71 | 0.36 | 90 | 1011.5 |
| 20260507083109 | 12 | 34 | 0.0 | 4.8 | 0.00 | 0.71 | 0.36 | 90 | 1011.5 |
| 20260507082608 | 12 | 63 | 0.0 | 3.2 | 0.00 | 0.71 | 0.36 | 90 | 1011.7 |
| 20260507082108 | 12 | 15 | 0.0 | 3.2 | 0.00 | 0.71 | 0.36 | 90 | 1011.5 |
| 20260507081607 | 12 | 38 | 0.0 | 3.2 | 0.00 | 0.71 | 0.36 | 90 | 1011.6 |
| 20260507081104 | 12 | 347 | 0.0 | 3.2 | 0.00 | 0.71 | 0.36 | 90 | 1011.6 |
| 20260507080604 | 12 | 82 | 1.6 | 8.0 | 0.00 | 0.71 | 0.36 | 90 | 1011.5 |
| 20260507080103 | 12 | 17 | 1.6 | 8.0 | 0.03 | 0.71 | 0.36 | 90 | 1011.7 |
| 20260507075607 | 12 | 306 | 1.6 | 8.0 | 0.03 | 0.71 | 0.36 | 90 | 1011.7 |
| 20260507075101 | 12 | 316 | 1.6 | 8.0 | 0.03 | 0.71 | 0.36 | 90 | 1011.4 |
| 20260507074613 | 12 | 12 | 1.6 | 6.4 | 0.03 | 0.71 | 0.36 | 91 | 1011.1 |
| 20260507074100 | 12 | 9 | 1.6 | 9.7 | 0.03 | 0.71 | 0.36 | 91 | 1010.9 |
| 20260507073600 | 12 | 304 | 1.6 | 9.7 | 0.03 | 0.71 | 0.36 | 91 | 1011.3 |
| 20260507073059 | 12 | 336 | 3.2 | 9.7 | 0.03 | 0.71 | 0.36 | 90 | 1011.0 |
| 20260507072556 | 12 | 351 | 1.6 | 9.7 | 0.03 | 0.71 | 0.36 | 90 | 1011.1 |
| 20260507072315 | 13 | 324 | 1.6 | 9.7 | 0.03 | 0.71 | 0.36 | 90 | 1011.1 |
| 20260507071559 | 13 | 51 | 1.6 | 6.4 | 0.03 | 0.71 | 0.36 | 90 | 1010.5 |
| 20260507071054 | 13 | 84 | 1.6 | 6.4 | 0.03 | 0.71 | 0.36 | 91 | 1010.8 |
| 20260507070604 | 13 | 41 | 1.6 | 6.4 | 0.03 | 0.71 | 0.36 | 91 | 1010.8 |
| 20260507070310 | 13 | 17 | 1.6 | 8.0 | 0.00 | 0.69 | 0.33 | 91 | 1011.0 |
| 20260507065548 | 13 | 350 | 3.2 | 8.0 | 0.00 | 0.69 | 0.33 | 91 | 1011.0 |
| 20260507065058 | 13 | 9 | 3.2 | 9.7 | 0.00 | 0.69 | 0.33 | 91 | 1010.9 |
| 20260507064546 | 13 | 299 | 3.2 | 9.7 | 0.00 | 0.69 | 0.33 | 91 | 1011.0 |
| 20260507064046 | 13 | 25 | 3.2 | 17.7 | 0.00 | 0.69 | 0.33 | 91 | 1011.0 |
| 20260507063552 | 13 | 28 | 3.2 | 17.7 | 0.00 | 0.69 | 0.33 | 91 | 1011.0 |
| 20260507063046 | 14 | 59 | 3.2 | 16.1 | 0.00 | 0.69 | 0.33 | 92 | 1011.0 |
| 20260507062546 | 14 | 15 | 3.2 | 8.0 | 0.00 | 0.69 | 0.33 | 92 | 1011.0 |
| 20260507062046 | 14 | 319 | 3.2 | 12.9 | 0.03 | 0.69 | 0.33 | 92 | 1011.0 |
| 20260507061545 | 14 | 62 | 1.6 | 12.9 | 0.03 | 0.69 | 0.33 | 92 | 1010.8 |
| 20260507061044 | 14 | 304 | 3.2 | 12.9 | 0.03 | 0.69 | 0.33 | 93 | 1011.2 |
| 20260507060544 | 14 | 343 | 4.8 | 12.9 | 0.05 | 0.69 | 0.33 | 93 | 1011.1 |
| 20260507060044 | 14 | 308 | 3.2 | 12.9 | 0.05 | 0.69 | 0.33 | 93 | 1011.0 |
| 20260507055543 | 14 | 350 | 3.2 | 9.7 | 0.05 | 0.69 | 0.33 | 93 | 1010.9 |
| 20260507055038 | 14 | 355 | 3.2 | 8.0 | 0.08 | 0.69 | 0.33 | 93 | 1010.8 |
| 20260507054549 | 14 | 321 | 4.8 | 9.7 | 0.08 | 0.69 | 0.33 | 93 | 1010.3 |
| 20260507054043 | 14 | 335 | 3.2 | 9.7 | 0.08 | 0.69 | 0.33 | 92 | 1009.9 |
| 20260507053541 | 14 | 314 | 1.6 | 6.4 | 0.08 | 0.69 | 0.33 | 92 | 1009.4 |
| 20260507053035 | 14 | 62 | 1.6 | 6.4 | 0.08 | 0.69 | 0.33 | 92 | 1009.2 |
| 20260507052535 | 14 | 22 | 1.6 | 6.4 | 0.08 | 0.69 | 0.33 | 93 | 1009.3 |
| 20260507052034 | 15 | 22 | 1.6 | 6.4 | 0.13 | 0.66 | 0.30 | 93 | 1009.4 |
| 20260507051541 | 15 | 109 | 1.6 | 6.4 | 0.18 | 0.66 | 0.30 | 92 | 1009.6 |
| 20260507051035 | 15 | 91 | 1.6 | 9.7 | 0.20 | 0.66 | 0.30 | 92 | 1010.0 |
| 20260507050534 | 15 | 336 | 1.6 | 9.7 | 0.20 | 0.64 | 0.28 | 91 | 1010.8 |